Tracking 22879 objects as of 21-Apr-2021
HD Live streaming from Space Station
objects crossing your sky now

COSMOS 873

Track COSMOS 873 now!
10-day predictions
COSMOS 873 is classified as:


NORAD ID: 9590
Int'l Code: 1976-118C
Perigee: 1,470.5 km
Apogee: 1,503.1 km
Inclination: 74.0 °
Period: 115.5 minutes
Semi major axis: 7857 km
RCS: 0.696 m2 (medium)
Launch date: December 7, 1976
Source: Commonwealth of Independent States (former USSR) (CIS)
Launch site: PLESETSK MISSILE AND SPACE COMPLEX (PKMTR)
aabbcc
Your satellite tracking list
Your tracking list is empty




NASA's NSSDC Master Catalog

Two Line Element Set (TLE):
1 09590U 76118C   21110.97535116 -.00000002  00000-0  94270-4 0  9997
2 09590  74.0280  95.5586 0020779 190.8447 175.7169 12.46380791 18716
Source of the keplerian elements: AFSPC